User: anonymous   Login
Location: Zagreb
(45.8000°N, 16.0000°E)
Time: 00:19:56
(UTC+01:00)
Language:

SPROUT - Orbit

View from above orbital plane
View from above orbital plane
View from above satellite
View from above satellite

Ground track
Ground track

The orbit data is extracted from the following two-line orbital elements,

1 39770U 14029E   20304.86388491  .00000947  00000-0  10943-3 0  9998
2 39770  97.9047  50.6380 0008033 239.3363 120.7060 14.87934598349199
Epoch (UTC): 30 October 2020 20:43:59
Eccentricity: 0.0008033
inclination: 97.9047°
perigee height: 599 km
apogee height: 610 km
right ascension of ascending node: 50.6380°
argument of perigee: 239.3363°
revolutions per day: 14.87934598
mean anomaly at epoch: 120.7060°
orbit number at epoch: 34919

The dashed part of the orbit path shows where the satellite is in the earth's shadow,  

DLR